Temperature
10 8 7 8 9 9 10 9 9 10 10 10 9 9 10 11 11 11 11 12 12 12 12 12 12 12 12 12 12 12 12 12 12 12 12 11 11 11 11 11 11 11 11 11
8 8 9 9 10 9 9 9 9 9 10 10 9 9 10 10 10 11 11 11 12 12 12 12 12 12 12 12 12 12 11 11 11 11 11 11 11 11 11 11 11 11 11 11
8 8 9 10 9 9 9 8 9 9 9 9 9 9 9 10 11 11 11 12 12 12 12 12 12 12 12 12 12 11 11 11 11 11 11 11 10 10 10 10 10 11 10 10
8 9 9 9 9 9 8 9 9 9 8 7 8 7 8 9 10 10 10 11 12 12 12 12 12 11 11 12 11 11 11 11 11 11 11 10 10 10 10 10 10 10 10 10
8 8 8 9 9 9 9 9 9 8 8 7 7 7 7 8 9 9 9 11 11 12 12 12 12 11 11 11 11 11 11 10 10 10 10 10 10 10 10 10 10 10 10 10
8 9 9 9 9 9 9 8 8 6 6 7 8 7 7 7 9 9 9 10 11 11 11 11 11 11 11 11 11 11 10 10 10 10 10 10 10 10 10 9 9 9 9 9
7 8 8 9 8 8 8 6 6 7 6 7 7 7 7 8 9 9 9 10 11 11 11 11 11 11 11 11 11 10 10 10 10 10 9 9 9 9 9 9 9 9 9 9
7 7 8 8 8 7 7 7 6 7 7 6 7 7 8 8 9 10 10 10 11 11 11 11 11 10 10 10 10 10 10 10 9 9 9 9 9 9 9 9 9 9 9 9
6 7 8 8 8 8 7 6 6 5 6 6 6 7 8 9 8 8 9 10 10 10 10 10 10 10 10 10 10 9 9 9 9 9 9 9 9 9 8 8 8 8 8 8
7 6 7 7 8 8 7 7 5 5 6 7 7 7 7 8 8 8 8 9 10 10 10 10 10 10 10 10 10 9 9 9 9 9 9 9 8 8 8 8 8 8 8 7
7 6 6 6 6 6 7 7 6 4 5 6 6 7 8 8 7 7 7 9 9 9 9 9 10 10 9 9 9 9 9 9 8 8 8 8 8 8 8 8 7 7 7 7
6 5 4 5 6 7 6 6 5 5 5 4 4 6 8 7 7 8 8 9 9 9 9 9 9 9 9 9 9 9 8 8 8 8 8 8 8 8 7 7 7 7 7 7
6 5 5 6 6 6 6 6 6 5 4 3 4 6 7 7 7 8 8 9 9 9 8 8 8 8 8 8 8 8 8 8 8 8 8 7 7 7 7 7 7 7 7 6
6 4 4 6 6 5 5 5 5 4 3 3 4 6 7 7 7 7 8 8 8 8 8 8 8 8 8 8 8 8 8 8 8 7 7 7 7 7 7 7 7 7 6 6
5 4 4 4 5 5 5 5 5 4 4 4 5 5 7 6 6 7 8 8 7 7 7 7 7 7 7 7 7 7 7 7 7 7 7 7 7 7 6 6 6 6 6 6
4 4 4 4 4 4 4 5 5 5 5 5 5 5 6 7 7 7 7 7 7 7 7 7 7 7 7 7 7 7 7 7 7 7 7 7 6 6 6 6 6 6 6 6
3 3 3 3 4 4 4 5 5 5 5 5 5 6 6 5 5 6 6 6 6 6 6 6 6 6 6 6 6 6 6 6 6 6 6 6 6 6 6 6 6 6 5 5
3 3 3 3 3 3 6 6 5 5 5 5 5 5 5 5 6 6 6 6 6 6 6 6 6 6 6 6 6 6 6 6 6 6 6 6 5 5 5 5 5 5 5 5
3 3 3 2 2 3 5 5 5 4 4 5 4 5 5 5 5 5 6 6 6 6 6 5 5 5 5 5 5 5 5 5 5 5 5 5 5 5 5 5 5 5 4 4
2 2 2 2 3 3 5 5 6 5 4 5 4 4 4 4 3 4 6 5 5 5 5 5 5 5 5 5 4 4 5 5 5 5 4 4 4 4 4 4 4 4 4 4
2 1 2 2 2 3 4 5 5 4 4 5 5 5 4 4 4 5 5 5 5 5 5 4 4 4 4 4 4 4 4 4 4 4 4 4 4 3 3 3 3 3 3 3
2 1 1 2 2 3 4 4 4 4 5 5 5 5 5 5 5 5 5 4 4 4 4 4 4 4 4 4 3 3 3 3 3 3 3 3 3 3 3 3 3 3 3 3
2 2 2 2 4 4 5 5 6 6 5 5 5 5 5 5 4 4 4 4 4 4 3 3 3 3 3 3 3 3 3 3 3 3 3 3 3 3 2 2 2 2 2 2
1 2 1 1 2 4 5 5 5 5 5 5 5 5 4 4 4 4 3 3 3 3 3 3 3 3 3 3 3 3 3 2 2 2 2 2 2 2 2 2 2 2 2 2
1 1 1 1 2 3 4 5 5 5 4 4 4 4 4 3 3 3 3 3 3 3 3 3 2 2 3 3 2 2 2 2 2 2 2 1 1 1 1 1 2 2 2 2
1 1 1 2 3 2 3 4 4 4 4 3 3 3 3 3 3 2 2 2 2 2 2 2 2 2 2 2 2 2 2 1 1 1 1 1 1 1 1 1 1 1 1 1
Wind_Speed
4 6 2 1 1 3 2 1 2 3 3 2 4 7 10 7 4 5 5 5 5 5 4 2 3 4 3 3 3 2 2 1 1 1 1 1 0 1 1 1 1 1 0 0
6 3 3 2 0 2 2 2 2 3 4 3 5 8 9 6 5 7 7 7 7 5 3 2 3 3 3 3 3 3 2 1 1 1 1 1 1 1 1 1 2 2 1 1
2 3 2 2 3 3 3 1 1 3 6 4 4 7 5 4 2 2 4 5 6 7 7 5 4 4 3 4 4 3 3 2 1 1 2 1 1 1 1 1 1 2 2 2
1 2 2 2 2 2 1 1 1 2 4 4 2 3 7 4 3 2 3 4 5 5 5 5 5 5 5 5 4 3 3 2 2 2 2 2 1 1 2 1 2 2 3 2
2 1 1 1 2 0 2 2 2 1 1 3 2 2 8 3 4 5 5 4 4 5 5 6 6 6 5 5 4 3 3 2 2 2 2 2 1 2 1 1 2 2 3 3
2 1 0 1 2 1 1 4 4 4 3 2 4 4 6 4 6 4 4 5 4 3 3 3 4 3 3 3 3 3 3 3 3 3 2 3 3 3 2 2 2 3 2 2
4 3 2 1 2 3 4 5 4 4 3 5 3 3 8 6 5 4 4 4 4 3 2 2 2 3 3 3 4 4 4 4 4 4 4 4 4 4 4 4 4 3 3 3
1 5 3 0 2 1 0 4 4 3 4 5 4 5 6 4 2 2 3 2 1 1 1 2 3 4 4 5 5 5 5 5 5 5 5 4 4 4 4 5 4 5 4 4
2 4 3 1 1 3 2 2 4 4 1 4 6 6 6 1 1 2 2 2 1 0 1 2 3 3 4 6 6 6 6 6 6 6 5 5 5 5 5 5 5 4 5 4
3 3 4 2 1 1 2 3 4 3 1 4 6 5 5 4 4 2 1 1 1 1 2 2 3 4 4 5 5 5 6 7 6 6 6 5 6 6 6 5 5 5 5 4
2 2 3 2 4 5 3 2 3 3 3 3 4 7 5 6 5 5 4 3 3 3 3 3 4 4 4 3 3 4 5 5 6 6 6 6 6 6 5 5 6 6 5 5
1 2 4 6 4 3 5 5 5 3 4 4 4 8 5 4 3 4 4 4 3 3 3 3 3 3 3 3 3 4 5 5 6 6 6 6 6 6 6 6 6 6 6 5
2 2 2 5 3 1 2 3 4 3 2 4 5 8 4 1 1 2 3 3 3 3 3 2 3 3 3 4 4 5 5 6 6 5 6 6 6 6 7 7 7 6 6 6
3 4 7 8 5 4 5 6 5 5 5 6 10 10 8 6 5 5 4 4 3 3 3 3 3 4 4 5 5 5 6 6 6 5 6 7 7 7 8 7 7 6 6 6
4 5 7 10 9 7 9 11 10 12 11 11 10 11 14 10 8 7 5 4 3 4 4 4 4 5 5 5 5 5 6 6 5 5 6 8 7 7 6 7 7 6 6 7
4 5 5 8 9 10 13 15 15 15 14 16 15 15 12 9 6 6 5 4 4 5 5 5 5 5 5 6 6 6 6 6 5 5 7 7 6 6 6 7 7 6 6 6
5 5 4 6 6 6 11 12 13 9 8 10 15 14 7 6 6 5 4 4 4 5 5 5 5 6 6 6 6 6 7 6 5 6 7 6 6 6 7 6 6 6 7 6
8 6 4 4 2 10 9 4 7 9 9 10 9 6 5 6 4 3 4 3 4 5 5 6 5 6 6 6 6 6 6 5 6 6 6 6 6 6 6 6 6 7 6 6
10 8 5 4 6 9 9 5 4 6 6 5 7 7 4 2 2 4 3 3 5 5 6 6 6 6 6 7 7 6 6 5 5 6 6 6 6 6 6 6 7 6 6 6
5 6 6 5 5 8 6 3 1 2 5 3 3 5 4 1 2 6 5 5 6 6 6 6 6 6 6 7 6 5 6 6 6 7 7 6 6 6 7 7 7 5 6 7
4 6 9 9 8 9 6 2 3 3 6 3 3 4 4 4 7 6 6 6 7 7 7 7 6 6 7 7 6 6 7 8 8 7 6 6 6 6 7 6 5 6 6 6
8 7 8 7 8 10 4 4 5 6 4 4 5 5 6 7 8 8 7 7 7 8 8 7 7 7 8 7 6 7 9 9 7 6 6 6 6 6 5 5 6 5 5 6
8 9 6 9 9 5 5 7 7 5 6 6 6 6 6 7 8 9 8 8 8 8 8 7 7 8 8 7 6 8 9 7 6 6 7 7 6 6 5 6 6 5 5 6
6 4 5 7 9 8 7 7 6 6 7 7 7 7 7 8 9 9 9 8 8 8 8 7 7 8 8 8 7 8 8 7 6 7 7 6 6 6 6 5 6 6 6 6
8 4 5 9 9 8 8 7 8 8 7 8 8 8 9 9 9 9 9 9 8 8 7 7 7 8 10 9 9 8 7 6 7 7 7 6 6 6 6 6 6 7 8 8
8 9 9 11 9 8 10 8 8 8 9 9 9 8 8 8 10 9 9 8 8 8 8 8 8 9 10 9 9 9 7 6 7 7 7 6 6 6 6 6 6 9 10 12
Wind_Direction
27 60 40 303 186 191 170 120 320 291 317 328 267 275 282 275 241 224 216 202 196 209 218 180 157 140 125 115 114 117 113 97 100 90 95 90 306 315 325 317 323 321 320 234
41 18 273 266 17 73 79 55 336 319 335 320 292 286 278 268 233 214 204 203 201 199 196 184 167 158 162 169 164 160 154 155 136 154 162 179 192 243 268 304 322 320 323 302
121 260 296 41 28 54 36 118 302 310 333 351 341 315 300 297 255 204 194 194 192 191 193 194 190 194 187 193 194 186 180 170 169 152 118 104 65 16 355 315 305 317 312 295
19 312 10 39 8 71 283 268 300 340 7 313 18 297 288 284 295 243 222 215 208 200 194 196 197 204 207 208 198 192 184 181 188 156 136 143 169 224 253 262 279 305 301 292
319 327 25 4 295 138 235 293 312 321 21 322 296 206 283 296 263 250 233 222 217 205 195 201 208 212 212 203 193 198 189 195 198 182 175 166 201 228 265 296 299 301 305 293
272 287 238 251 301 304 329 15 24 45 71 300 239 188 276 254 235 239 229 218 219 214 213 218 220 211 213 203 200 201 200 217 214 204 199 192 209 226 253 272 271 281 285 282
339 329 327 29 16 10 50 65 25 357 354 258 276 216 251 260 247 206 205 219 221 219 219 226 217 215 220 216 211 208 209 226 226 221 222 217 217 219 228 241 246 258 269 269
351 300 283 269 170 196 187 129 155 216 247 286 307 242 258 281 291 157 158 163 165 208 231 226 224 218 224 229 223 215 217 229 227 226 232 229 226 224 234 238 240 244 248 252
191 267 304 261 221 151 147 178 174 146 246 275 277 281 300 307 45 86 110 103 125 226 244 233 242 238 233 231 226 219 221 231 233 232 233 235 232 231 238 245 244 243 246 249
168 258 283 302 31 341 163 148 103 133 210 270 289 274 248 244 232 236 219 197 256 285 288 275 263 260 257 245 238 230 225 229 235 233 232 236 233 233 235 240 246 246 246 246
139 198 294 325 217 214 182 183 157 159 182 196 272 273 231 218 211 211 223 227 233 245 255 266 271 271 269 266 254 244 243 243 245 240 237 238 240 238 236 239 243 242 244 241
134 143 259 256 256 229 197 196 163 183 232 202 218 269 276 226 225 209 224 242 244 244 252 268 281 293 293 278 266 258 254 249 247 244 239 239 239 238 240 244 244 241 243 244
146 139 309 323 314 284 233 218 192 174 171 196 212 262 317 327 306 244 229 245 257 264 280 298 308 304 296 286 277 269 262 257 256 248 242 243 241 240 242 245 244 240 239 244
146 185 206 226 238 216 248 248 212 182 211 234 233 256 282 281 286 284 273 259 261 267 278 292 296 289 286 285 278 273 270 263 261 253 246 246 244 241 243 243 242 240 237 239
151 227 238 252 261 255 250 250 231 220 219 228 246 247 260 261 261 264 266 269 274 283 290 289 287 287 288 290 285 277 274 271 262 255 251 251 250 247 244 244 243 241 239 239
180 228 252 267 258 260 263 255 244 239 235 239 253 262 260 264 256 260 263 261 266 276 284 287 291 292 289 286 284 283 280 276 265 256 256 257 255 252 249 247 244 241 240 239
206 204 237 264 279 301 264 244 229 226 222 217 238 250 258 264 256 250 253 246 255 273 285 289 292 285 283 282 279 277 273 275 267 260 262 260 254 252 251 248 245 242 242 242
198 196 219 259 283 249 246 223 210 222 240 227 238 252 247 249 249 245 230 224 262 279 285 287 289 289 287 283 284 280 279 278 269 264 263 260 255 254 254 247 246 245 242 242
200 193 209 221 245 270 283 268 206 208 260 234 235 254 265 280 343 296 257 241 253 264 269 269 269 273 284 289 287 288 287 284 277 271 268 265 256 255 254 251 250 246 242 245
186 185 198 211 233 247 252 272 250 125 263 260 216 235 243 182 289 275 271 271 268 269 272 274 277 280 285 285 285 287 286 286 279 273 269 265 259 255 254 252 249 247 242 245
175 199 214 224 235 257 257 243 106 194 252 269 234 228 222 227 235 254 268 271 269 275 278 279 282 283 280 282 284 280 280 275 273 273 269 264 259 255 253 252 249 248 247 247
190 199 211 208 226 247 222 146 192 233 258 258 250 236 231 245 259 266 269 273 279 281 280 280 280 280 279 277 273 274 273 273 275 275 271 268 264 260 257 249 253 249 243 246
213 206 204 208 227 249 204 218 239 235 248 253 243 242 239 253 263 268 270 271 272 272 274 274 272 279 281 275 263 268 274 278 279 278 273 270 269 262 252 245 249 251 241 241
245 224 220 247 260 267 264 260 258 245 249 250 245 250 249 253 260 266 268 269 268 269 270 272 275 278 281 280 272 266 273 276 273 274 275 271 267 267 260 250 242 242 240 240
240 229 245 258 272 285 273 256 256 264 262 261 262 259 254 255 260 261 265 266 267 269 269 267 268 272 276 280 279 275 272 270 268 269 271 268 262 260 260 254 243 239 239 235
229 229 239 256 254 254 269 269 265 267 266 263 267 272 265 255 260 262 264 266 267 271 271 271 270 270 273 275 276 275 269 262 262 270 269 265 262 260 257 258 267 249 244 250
Height
1508 1513 1516 1514 1513 1512 1512 1513 1514 1511 1506 1506 1505 1502 1497 1494 1495 1494 1494 1495 1495 1496 1498 1499 1499 1500 1500 1501 1501 1502 1502 1503 1503 1503 1502 1503 1503 1504 1504 1505 1505 1506 1506 1506
1514 1517 1513 1511 1510 1511 1512 1514 1515 1511 1507 1507 1506 1502 1495 1492 1492 1491 1492 1493 1493 1495 1496 1497 1497 1498 1499 1500 1500 1501 1501 1501 1501 1501 1501 1501 1501 1501 1502 1502 1503 1503 1503 1504
1517 1516 1511 1511 1512 1512 1514 1516 1515 1513 1510 1508 1508 1504 1497 1492 1490 1490 1490 1491 1492 1493 1494 1495 1496 1497 1498 1498 1499 1499 1499 1500 1499 1499 1498 1498 1499 1498 1499 1500 1500 1500 1500 1501
1516 1514 1513 1513 1514 1513 1516 1513 1513 1512 1516 1518 1514 1517 1501 1495 1492 1490 1490 1490 1491 1492 1492 1493 1494 1495 1496 1497 1497 1498 1498 1498 1498 1497 1497 1496 1496 1496 1496 1496 1497 1497 1497 1497
1518 1515 1515 1515 1514 1513 1514 1512 1512 1513 1516 1519 1515 1518 1506 1496 1493 1490 1489 1489 1489 1490 1491 1491 1492 1493 1494 1495 1495 1496 1496 1496 1495 1495 1495 1494 1494 1494 1494 1494 1494 1494 1494 1494
1517 1515 1514 1514 1513 1512 1512 1513 1514 1518 1521 1522 1514 1517 1508 1499 1491 1488 1487 1487 1488 1489 1489 1490 1491 1492 1492 1493 1493 1494 1494 1494 1494 1493 1493 1492 1492 1492 1491 1491 1491 1491 1491 1491
1520 1516 1514 1513 1514 1514 1515 1521 1528 1524 1527 1520 1511 1512 1505 1490 1486 1485 1485 1486 1486 1488 1488 1489 1489 1490 1490 1490 1491 1491 1492 1491 1491 1491 1491 1490 1490 1490 1489 1489 1488 1488 1487 1487
1525 1524 1516 1514 1515 1517 1517 1521 1529 1526 1526 1522 1512 1509 1497 1487 1484 1484 1484 1485 1485 1486 1487 1487 1488 1488 1488 1489 1489 1489 1489 1489 1489 1489 1488 1488 1487 1487 1486 1486 1485 1485 1484 1483
1526 1523 1515 1514 1514 1515 1516 1521 1521 1528 1527 1526 1515 1505 1493 1485 1485 1484 1484 1484 1485 1485 1485 1486 1486 1486 1486 1486 1486 1486 1486 1486 1486 1486 1485 1485 1484 1484 1483 1482 1482 1481 1480 1479
1521 1523 1517 1515 1514 1514 1515 1517 1525 1526 1524 1520 1513 1507 1498 1488 1486 1485 1484 1483 1484 1484 1484 1484 1484 1484 1484 1484 1484 1483 1483 1483 1483 1482 1482 1481 1481 1480 1479 1478 1477 1477 1476 1475
1519 1524 1521 1518 1516 1516 1517 1518 1520 1525 1526 1524 1519 1505 1487 1484 1483 1483 1483 1482 1483 1483 1483 1483 1482 1482 1481 1481 1480 1480 1480 1479 1479 1478 1478 1477 1477 1476 1475 1474 1473 1472 1471 1471
1519 1525 1525 1518 1513 1512 1513 1514 1518 1523 1522 1524 1525 1506 1482 1481 1481 1481 1481 1481 1481 1481 1481 1480 1480 1479 1478 1478 1477 1477 1476 1475 1475 1474 1474 1473 1472 1471 1470 1469 1469 1468 1467 1466
1518 1524 1525 1517 1517 1514 1512 1511 1513 1516 1520 1524 1520 1501 1482 1481 1481 1480 1480 1480 1479 1479 1479 1478 1477 1476 1475 1474 1474 1473 1472 1472 1471 1470 1469 1468 1467 1466 1465 1465 1464 1463 1462 1462
1515 1521 1522 1515 1509 1510 1511 1509 1510 1514 1519 1516 1507 1494 1484 1482 1481 1479 1479 1478 1478 1477 1476 1475 1474 1473 1472 1471 1470 1469 1468 1467 1466 1465 1464 1463 1462 1462 1461 1460 1459 1458 1457 1457
1514 1518 1516 1512 1508 1508 1506 1504 1504 1505 1504 1504 1494 1490 1480 1479 1478 1477 1476 1475 1475 1474 1473 1472 1471 1470 1469 1468 1466 1465 1464 1463 1462 1460 1459 1458 1457 1457 1455 1454 1453 1453 1452 1451
1512 1514 1513 1509 1504 1504 1501 1495 1494 1493 1492 1490 1487 1482 1475 1475 1474 1474 1473 1472 1471 1471 1470 1469 1468 1466 1465 1464 1462 1461 1460 1458 1457 1455 1454 1453 1452 1451 1450 1449 1448 1447 1446 1445
1510 1512 1512 1508 1504 1501 1495 1483 1482 1483 1480 1480 1480 1474 1471 1471 1471 1470 1470 1469 1469 1468 1467 1466 1464 1463 1462 1460 1458 1456 1455 1453 1452 1450 1449 1448 1446 1445 1444 1443 1442 1441 1440 1440
1505 1507 1508 1506 1506 1502 1478 1472 1472 1474 1472 1472 1469 1467 1467 1467 1467 1467 1467 1466 1466 1465 1464 1462 1461 1459 1457 1456 1454 1452 1450 1448 1446 1445 1443 1442 1441 1440 1439 1437 1436 1435 1434 1434
1495 1500 1503 1503 1501 1489 1476 1469 1469 1471 1469 1466 1466 1465 1465 1465 1465 1464 1464 1464 1463 1462 1460 1458 1457 1454 1453 1451 1449 1447 1444 1443 1441 1439 1438 1436 1435 1434 1433 1432 1431 1430 1429 1428
1491 1494 1499 1498 1496 1487 1471 1466 1464 1467 1468 1462 1462 1462 1463 1463 1466 1462 1460 1460 1458 1457 1456 1454 1452 1449 1447 1446 1444 1442 1439 1437 1435 1434 1432 1431 1430 1428 1427 1426 1425 1424 1423 1422
1492 1493 1493 1491 1488 1477 1466 1464 1464 1471 1465 1460 1459 1459 1459 1460 1459 1458 1456 1455 1454 1452 1450 1448 1446 1444 1442 1440 1438 1436 1434 1432 1430 1428 1427 1425 1424 1422 1421 1420 1419 1419 1417 1416
1483 1486 1485 1484 1483 1474 1460 1462 1464 1461 1457 1456 1456 1455 1455 1454 1453 1452 1451 1449 1448 1446 1444 1443 1441 1438 1437 1435 1433 1430 1428 1427 1425 1423 1421 1419 1418 1416 1415 1414 1413 1412 1411 1410
1475 1472 1471 1470 1465 1457 1456 1456 1455 1455 1454 1453 1452 1451 1451 1450 1448 1447 1445 1443 1442 1441 1439 1437 1435 1433 1431 1429 1427 1425 1422 1421 1419 1416 1414 1413 1411 1410 1409 1408 1407 1406 1405 1404
1467 1464 1465 1463 1457 1454 1453 1452 1451 1451 1450 1448 1448 1447 1446 1444 1443 1441 1439 1438 1436 1434 1433 1431 1429 1427 1425 1423 1421 1419 1417 1415 1413 1410 1408 1406 1405 1403 1403 1402 1401 1400 1399 1398
1461 1461 1460 1457 1453 1450 1447 1447 1447 1446 1445 1444 1443 1441 1440 1439 1437 1435 1433 1432 1430 1428 1427 1425 1423 1421 1418 1417 1415 1413 1411 1408 1406 1404 1402 1400 1399 1397 1396 1395 1394 1393 1393 1393
1454 1455 1455 1450 1447 1447 1443 1442 1442 1440 1439 1438 1436 1435 1433 1433 1430 1429 1427 1425 1424 1422 1420 1418 1416 1414 1412 1410 1407 1406 1404 1402 1400 1397 1395 1394 1392 1390 1389 1388 1387 1386 1387 1386